#timestamp,LO_Frequency,Hit,StdDev 
1633244415.5,286047005.3,N
1633244435.3,286047004.3,N
1633244455.2,286047001.9,N
1633244475.0,286047001.0,N
1633244475.9,286047001.0,N
1633244495.8,286046998.2,N
1633244515.6,286046998.3,N
1633244535.4,286046995.4,N
1633244555.3,286046993.7,N
1633244575.1,286046993.4,N
1633244595.8,286047001.7,N
1633244615.7,286047005.2,N
1633244635.5,286047005.8,N
1633244655.4,286047007.2,N
1633244675.2,286047007.6,N
1633244695.0,286047010.1,N
1633244695.9,286047010.1,N
1633244715.8,286047007.4,N
1633244735.6,286047003.7,N
1633244755.4,286047001.7,N
1633244775.3,286046998.5,N
1633244795.1,286046998.2,N
1633244815.9,286047000.8,N
1633244835.7,286047001.1,N
1633244855.5,286047000.8,N
1633244875.4,286047000.5,N
1633244895.2,286046998.1,N
1633244915.0,286046998.7,N
1633244916.0,286046998.7,N
1633244935.8,286046999.2,N
1633244955.6,286046999.4,N
1633244975.5,286046999.0,N
1633244995.3,286046996.5,N
1633245015.1,286046997.7,N
1633245035.9,286046998.4,N
1633245055.7,286046998.6,N
1633245075.6,286046998.8,N
1633245095.4,286046996.5,N
1633245115.2,286046998.7,N
1633245135.1,286046997.3,N
1633245136.0,286046997.3,N
1633245155.8,286046997.3,N
1633245175.6,286046996.4,N
1633245195.5,286046996.9,N
1633245215.3,286046997.6,N
1633245235.2,286046997.2,N
1633245255.9,286047000.0,N
1633245275.7,286046996.5,N
1633245295.6,286046999.1,N
1633245315.4,286046997.3,N
1633245335.2,286046993.3,Y
1633245355.1,286046997.4,P
1633245356.0,286046997.4,P
1633245375.8,286046999.6,N
1633245395.7,286047002.7,N
1633245415.5,286047003.0,N
1633245435.3,286047005.5,N
1633245455.2,286047007.9,N
1633245475.0,286047018.3,Y
1633245475.9,286047018.3,P
1633245495.8,286047011.2,N
1633245515.6,286047008.7,N
1633245535.4,286047007.0,N
1633245555.3,286047008.8,N
1633245575.1,286047007.8,N
1633245595.8,286047007.1,N
1633245615.7,286047004.6,N
1633245635.5,286047005.7,N
1633245655.4,286047004.4,N
1633245675.2,286047001.5,N
1633245695.0,286046999.5,N
1633245695.9,286046999.5,N
1633245715.8,286046997.4,N
1633245735.6,286046997.0,N
1633245755.4,286046997.4,N
1633245775.3,286046999.3,N
1633245795.1,286046999.2,N
1633245815.9,286046998.4,N
1633245835.7,286046999.9,N
1633245855.5,286046998.4,N
1633245875.4,286046998.5,N
1633245895.2,286046999.0,N
1633245915.1,286046995.4,N
1633245916.0,286046995.4,N
1633245935.8,286046997.5,N
1633245955.6,286046999.2,N
1633245975.5,286046998.3,N
1633245995.3,286047001.2,N
1633246015.1,286046999.8,N
1633246035.9,286047000.0,N
1633246055.7,286047003.5,N
1633246075.6,286047005.1,N
1633246095.4,286047003.0,N
1633246115.2,286047006.9,N
1633246135.1,286047009.9,N
1633246136.0,286047009.9,N
1633246155.8,286047011.9,Y
1633246175.7,286047004.9,P
1633246195.5,286047001.1,N
1633246215.3,286046997.2,N
1633246235.2,286046998.8,N
1633246255.0,286047003.1,N
1633246255.9,286047003.1,N
1633246275.7,286046998.1,N
1633246295.6,286047002.3,N
1633246315.4,286047003.7,N
1633246335.3,286047006.0,N
1633246355.1,286047006.0,N
1633246356.0,286047006.0,N
1633246375.8,286047001.9,N
1633246395.7,286047009.7,Y
1633246415.5,286047007.4,P
1633246435.4,286047002.8,N
1633246455.2,286047000.7,N
1633246475.0,286047003.7,N
1633246475.9,286047003.7,N
1633246495.8,286046998.9,N
1633246515.6,286047007.4,N
1633246535.4,286047003.0,N
1633246555.3,286047000.1,N
1633246575.1,286046998.8,N
1633246595.9,286046996.8,N
1633246615.7,286046994.9,N
1633246635.5,286046996.4,N
1633246655.4,286046992.2,N
1633246675.2,286046997.9,N
1633246695.1,286046997.2,N
1633246696.0,286046997.2,N
1633246715.8,286046999.4,N
1633246735.6,286046997.4,N
1633246755.5,286046996.3,N
1633246775.3,286046992.7,N
1633246795.1,286046995.9,N
1633246815.9,286046998.1,N
1633246835.7,286047000.3,N
1633246855.6,286047006.7,N
1633246875.4,286047016.6,Y
1633246895.2,286047015.2,P
1633246915.1,286047010.6,N
1633246916.0,286047010.6,N
1633246935.8,286047004.5,N
1633246955.7,286047008.0,N
1633246975.5,286047009.2,N
1633246995.3,286047007.5,N
1633247015.2,286047009.0,N
1633247035.0,286047003.0,N
1633247035.9,286047003.0,N
1633247055.7,286047003.0,N
1633247075.6,286047003.9,N
1633247095.4,286047000.1,N
1633247115.3,286047000.5,N
1633247135.1,286047004.9,N
1633247136.0,286047004.9,N
1633247155.8,286047004.0,N
1633247175.7,286047001.0,N
1633247195.5,286046996.7,N
1633247215.3,286046999.2,N
1633247235.2,286046996.1,N
1633247255.0,286046995.0,N
1633247255.9,286046995.0,N
1633247275.8,286046994.9,N
1633247295.6,286046995.9,N
1633247315.4,286046995.9,N
1633247335.3,286047008.4,N
1633247355.1,286047010.7,N
1633247375.9,286047008.6,N
1633247395.7,286047006.7,N
1633247415.5,286047002.9,N
1633247435.4,286047004.1,N
1633247455.2,286047000.2,N
1633247475.0,286047000.6,N
1633247475.9,286047000.6,N
1633247495.8,286046999.1,N
1633247515.6,286046994.9,N
1633247535.5,286047001.1,N
1633247555.3,286047001.8,N
1633247575.1,286047005.6,N
1633247595.9,286047002.3,N
1633247615.7,286046998.4,N
1633247635.5,286047000.7,N
1633247655.4,286046999.1,N
1633247675.2,286046995.1,N
1633247695.1,286046993.7,N
1633247696.0,286046993.7,N
1633247715.8,286046992.3,N
1633247735.6,286046990.1,N
1633247755.5,286046990.7,N
1633247775.3,286046991.6,N
1633247795.2,286046988.7,N
1633247815.9,286046995.3,N
1633247835.7,286047002.3,N
1633247855.6,286047002.4,N
1633247875.4,286047003.6,N
1633247895.2,286047006.4,N
1633247915.1,286047002.3,N
1633247916.0,286047002.3,N
1633247935.8,286046998.6,N
1633247955.7,286046997.3,N
1633247975.5,286046998.3,N
1633247995.3,286047004.1,N
